METEOR 2-11 DEB

Satellite information

Favourite Embed

Satellite Type and Status

DEBRISIN ORBIT

Key statistics

Satellite METEOR 2-11 DEB at a glance.

Uptime

14977

Days in orbit

Revolutions

≈ 14.0

Per day

Orbit

LEO

Low Earth Orbit

Inclination

82.5

Latest

Satellite identification and parameters

Extended collection of information and parameters for METEOR 2-11 DEB.

Object identification

Identified? True

Debris? True

Object name: METEOR 2-11 DEB

International designator: 1984-072AB

Object number (NORAD): 60006

Object ID (CCSDS): 60006

Country: COMMONWEALTH OF INDEPENDENT STATES (CIS)

Current information (Y/N): Y

RCS size: SMALL

Orbital parameters

Period: 103.056 minutes

Inclination: 82.5272 deg

SMA: 7281.302 km

Apoapsis: 916.832 km

Periapsis: 889.502 km

RAAN: 297.0378 deg

Eccentricy: 0.0018767

Argument of periapsis: 183.6884 deg

Mean anomaly: 176.4148 deg

Mean motion: 13.97298548 rev/day

Mean motion (dot): 0.0000044 rev/day2

B* drag term: 0.00030293 1/REarth

Two-line elements (TLE)

Creation date: June 28, 2025, 5:41 p.m.

Reference frame: TEME

Reference center: EARTH

Epoch: June 28, 2025, 1:30 a.m. UTC

TLE line 0: 0 METEOR 2-11 DEB

TLE line 1: 1 60006U 84072AB 25179.06304440 .00000440 00000-0 30293-3 0 9996

TLE line 2: 2 60006 82.5272 297.0378 0018767 183.6884 176.4148 13.97298548381215

Live tracking on map

Real-time ground track for satellite METEOR 2-11 DEB.

In-orbit conjunctions

A list of the most updated potential collisions computed for object METEOR 2-11 DEB.

Target Orbit TCA Probability of collision Miss distance Type
OBJECT A LEO 2025-04-10 21:02:31 0.0001099949 125.0 (m) UNKNOWN
FENGYUN 1C DEB SSO 2024-10-14 05:55:08 0.0002933934 273.0 (m) DEBRIS
IRIDIUM 33 DEB LEO 2024-09-25 02:52:35 0.0001428657 469.0 (m) DEBRIS

Associated space launch

Second generation soviet meteorological satellite

METEOR 2-11 DEB was lifted into orbit during the mission ‘Tsiklon-3 | Meteor-2 11’, on board a Tsiklon-3 space rocket.

The launch took place on July 5, 1984, 3:35 a.m. from 32/2.

For more information about the launch, click the button.

Launch to space Tsiklon-3 | Meteor-2 11
Tsiklon-3 | Meteor-2 11

Agency: N/A

Status: Launch Successful

Launch date: July 5, 1984, 3:35 a.m. UTC

Rocket: Tsiklon-3

Launch pad: 32/2

Location: Plesetsk Cosmodrome, Russian Federation

...

Latest news about this satellite

There are no fresh news available about this satellite. Check back as we update our databases every day.


Newsletter sign-up

Weekly statistics, charts and insights to help you stay on top of the space industry.